sat.trackr.live / text

‹ back to catalog

STARLINK-36503

NORAD 67411 · 2026-005H

PAYLOAD ACTIVE UNKNOWN

§ Identity

Operator
Country
US
Launch date
2026-01-12
Launch site
AFETR
Launch vehicle
Mass (kg)
RCS (m²)

Purposes: comms

External: N2YO · Heavens-Above · Gunter

§ Orbital elements

Epoch: 2026-09-19T22:13:57.724320Z

Period
94.27 min
Inclination
42.9977°
Eccentricity
0.0000234
Mean motion
15.27590323 rev/d
Perigee alt
482.9 km
Apogee alt
483.2 km
Semi-major
6,861.2 km
B*
3.1535e-4
RAAN
220.9325°
Arg perigee
230.4067°
Mean anomaly
129.6764°
Rev number
3,840

§ Raw data

STARLINK-365031 67411U 26005H   26262.92636255  .00008429  00000+0  31535-3 0  99902 67411  42.9977 220.9325 0000234 230.4067 129.6764 15.27590323 38400

JSON: /api/v1/satellites/67411 · /tle

For live sub-satellite position, see the globe view (requires WebGL).

§ Visibility from observer

Set your observer location to see the next 7 days of passes ≥ 10°. The values pass through the URL so the page stays shareable.

No JS? Fill the form by hand. The geolocation button needs JavaScript.